Погода в Лужайках

Россия / Нижегородская область     57°39′51″N   46°32′16″E
темп.,
°C
ветер,
м/с
пор.,
м/с
влажн.,
%
обл.,
%
осадки,
мм/ч
давл.,
гПа
погр.,
м
17 апреля, сб
сб1700:00+2всв310812 0.0 1029201
03:00+1всв37830 0.0 1030132
06:000всв38860 0.0 1031157
09:00+6всв48710 0.0 1030533
12:00+9всв45545 0.0 10301129
15:00+10св34505 0.0 10281293
18:00+8всв23716 0.0 102745
21:00+4св22825 0.0 102718
18 апреля, вс
вс1800:00+3ссв34855 0.0 102655
03:00+2св37885 0.0 1026114
06:00+2св26855 0.0 1026136
09:00+7св46655 0.0 1027617
12:00+9св666489 0.0 10271336
15:00+6всв6867100 0.1 10291150
18:00+5всв486082 0.0 1029861
21:00+2всв51266100 0.0 1030432
19 апреля, пн
пн1900:000всв51272100 0.0 1031418
03:00−1всв5127350 0.0 1032442
06:00−1всв512705 0.0 1033526
09:00+4в610442 0.0 10341308
12:00+6в69395 0.0 10331640
15:00+7в68370 0.0 10321624
18:00+5в59460 0.0 1033696
21:00+1в412610 0.0 1034294
20 апреля, вт
вт2000:000в411670 0.0 1034271
03:00−1в411650 0.0 1035271
06:000в412550 0.0 1034404
09:00+5вюв68360 0.0 1034891
12:00+8вюв67370 0.0 10331394
15:00+9вюв67340 0.0 10321514
18:00+7вюв49460 0.0 1030366
21:00+3вюв412586 0.0 1031286
21 апреля, ср
ср2100:00+2вюв5145876 0.0 1030357
03:00+1вюв6155775 0.0 1028432
06:00+2вюв7175597 0.0 1027677
09:00+6юв91743100 0.0 1025955
12:00+10юв91736100 0.0 10231308
15:00+7ююв91752100 0.1 10231188
18:00+4юв91783100 0.6 1022967
21:00+4ююв81686100 0.9 1022859